Date,TemperatureHighF,TemperatureAvgF,TemperatureLowF,DewpointHighF,DewpointAvgF,DewpointLowF,HumidityHigh,HumidityAvg,HumidityLow,PressureMaxIn,PressureMinIn,WindSpeedMaxMPH,WindSpeedAvgMPH,GustSpeedMaxMPH,PrecipitationSumIn
2012-1-1,67,49,30,54,40,29,95,74,45,30.14,29.84,10,2,16,0.03
2012-1-2,53,41,31,37,21,15,61,45,34,30.03,29.90,10,3,18,0.00
2012-1-3,34,28,22,17,10,7,60,48,35,30.33,30.01,17,4,22,0.00
2012-1-4,42,29,18,16,12,8,76,53,32,30.38,30.05,8,1,12,0.00
2012-1-5,54,41,31,30,24,15,74,52,37,30.09,30.01,10,1,14,0.00
2012-1-6,65,48,29,36,31,25,86,56,32,30.08,29.93,8,1,11,0.00
2012-1-7,71,54,41,49,40,32,79,61,45,30.03,29.89,10,1,15,0.00
2012-1-8,56,52,46,47,40,34,88,64,45,30.25,30.03,5,0,7,0.00
2012-1-9,47,42,41,43,41,40,96,94,80,30.25,30.05,3,0,5,0.21
2012-1-10,60,47,40,43,40,35,97,80,41,30.10,29.99,4,0,7,0.00
2012-1-11,58,50,41,57,47,39,98,92,78,30.00,29.49,7,1,19,0.40
2012-1-12,58,52,44,50,46,43,94,82,69,29.63,29.48,9,2,15,0.00
2012-1-13,54,39,30,47,23,17,79,53,44,30.04,29.48,17,5,39,0.00
2012-1-14,44,35,25,24,20,17,78,56,38,30.20,30.04,9,2,14,0.00
2012-1-15,42,33,25,29,24,20,90,71,51,30.55,30.10,7,1,13,0.00
2012-1-16,45,35,21,34,24,18,91,68,45,30.60,30.32,11,1,12,0.00
2012-1-17,64,52,42,54,45,34,92,76,64,30.31,29.78,16,4,23,0.07
2012-1-18,57,46,35,54,32,20,95,59,40,30.12,29.82,8,2,15,0.02
2012-1-19,48,38,25,32,24,17,74,58,45,30.22,30.03,7,1,11,0.00
2012-1-20,56,44,29,44,36,27,95,76,51,30.16,30.05,5,0,8,0.18
2012-1-21,54,48,35,53,47,31,97,95,87,30.18,29.84,9,1,14,0.24
2012-1-22,36,34,32,34,32,29,95,92,87,30.38,30.18,6,1,12,0.00
2012-1-23,50,40,35,49,40,34,97,96,95,30.31,30.00,3,0,7,0.00
2012-1-24,63,50,44,50,48,42,98,91,61,30.20,30.01,5,0,8,0.01
2012-1-25,62,45,30,44,38,29,97,77,40,30.32,30.18,4,0,8,0.01
2012-1-26,69,52,36,60,48,34,96,87,68,30.18,29.75,7,1,16,0.00
2012-1-27,67,61,44,62,51,33,94,72,46,30.00,29.57,12,3,27,0.31
2012-1-28,61,46,30,40,34,26,95,64,44,30.21,29.99,6,1,17,0.00
2012-1-29,53,43,30,26,19,15,65,41,23,30.35,30.20,7,1,13,0.00
2012-1-30,59,43,28,30,23,-100,78,49,30,30.42,30.24,6,-10,10,0.00
2012-1-31,66,52,39,36,31,26,65,46,30,30.36,30.21,11,2,16,0.00
2012-2-1,68,58,50,53,43,32,93,58,48,30.23,30.04,11,2,14,0.03
2012-2-2,68,58,47,54,46,30,96,68,38,30.29,29.96,10,2,17,0.02
2012-2-3,57,44,32,34,32,29,90,64,40,30.48,30.29,4,0,10,0.00
2012-2-4,54,44,33,48,40,29,96,87,60,30.37,30.03,4,0,10,0.09
2012-2-5,48,41,31,47,39,29,96,94,88,30.24,29.98,6,1,11,0.16
2012-2-6,47,38,29,39,33,28,96,82,56,30.30,30.12,4,0,8,0.01
2012-2-7,55,42,32,38,34,29,93,74,45,30.18,30.10,5,0,8,0.00
2012-2-8,50,37,27,39,32,26,96,85,63,30.20,30.08,3,0,9,0.00
2012-2-9,49,37,27,32,28,25,93,73,45,30.29,30.17,6,0,11,0.00
2012-2-10,48,38,26,39,33,24,94,81,68,30.21,29.86,4,0,10,0.00
2012-2-11,48,38,24,38,25,4,92,63,38,30.02,29.68,20,4,30,0.00
2012-2-12,40,30,20,15,9,2,55,42,32,30.23,30.03,12,3,21,0.00
2012-2-13,51,37,22,22,18,14,77,49,27,30.27,30.11,6,1,11,0.00
2012-2-14,56,48,39,42,32,21,70,56,46,30.12,29.97,12,2,22,0.00
2012-2-15,63,48,36,42,36,32,94,67,34,30.26,30.05,6,1,12,0.00
2012-2-16,56,46,38,50,42,31,97,85,53,30.26,29.99,7,1,13,0.41
2012-2-17,62,50,43,48,42,37,97,78,44,30.09,30.00,5,1,11,0.00
2012-2-18,63,52,37,44,37,31,83,60,34,30.11,29.94,6,0,10,0.00
2012-2-19,50,40,32,46,36,30,95,86,66,29.97,29.71,9,2,14,0.56
2012-2-20,48,37,28,32,30,26,95,78,50,30.35,29.90,8,2,14,0.14
2012-2-21,57,40,23,46,34,21,95,81,57,30.34,29.98,10,1,23,0.00
2012-2-22,69,55,40,50,45,39,96,71,44,29.98,29.54,10,2,21,0.00
2012-2-23,73,59,46,59,53,45,97,81,56,29.67,29.55,10,2,24,0.01
2012-2-24,78,66,48,64,56,27,91,70,41,29.81,29.41,18,5,29,0.25
2012-2-25,52,44,34,28,22,17,54,43,31,30.32,29.81,20,5,27,0.00
2012-2-26,53,38,24,24,21,17,81,53,31,30.50,30.31,6,1,10,0.00
2012-2-27,48,40,29,47,38,23,97,89,71,30.47,30.31,4,0,6,0.25
2012-2-28,65,51,36,47,40,35,97,71,35,30.41,30.29,5,0,7,0.01
2012-2-29,69,56,44,62,51,39,96,82,73,30.28,29.77,12,2,22,0.09
2012-3-1,80,66,49,62,53,38,94,69,31,29.86,29.68,10,3,23,0.04
2012-3-2,54,50,44,53,46,38,97,87,68,30.00,29.66,5,0,10,0.00
2012-3-3,63,56,49,62,54,47,98,92,67,29.73,29.56,8,1,16,1.04
2012-3-4,53,45,35,47,31,20,95,62,36,30.00,29.64,12,2,23,0.13
2012-3-5,51,41,31,34,25,19,80,54,36,30.49,29.90,18,3,31,0.00
2012-3-6,53,38,24,30,24,20,86,61,35,30.67,30.49,6,1,10,0.00
2012-3-7,69,50,30,51,40,28,93,71,47,30.64,30.43,9,2,16,0.00
2012-3-8,74,61,43,57,51,42,97,72,44,30.43,30.09,15,2,20,0.00
2012-3-9,61,54,38,58,43,31,96,71,38,30.30,30.03,10,2,16,0.25
2012-3-10,55,46,35,32,27,23,69,50,29,30.52,30.29,7,1,11,0.00
2012-3-11,64,47,28,35,30,25,91,56,29,30.58,30.42,5,1,10,0.00
2012-3-12,71,54,37,53,44,29,93,69,52,30.43,30.21,8,1,16,0.00
2012-3-13,77,66,58,62,58,51,92,75,58,30.22,30.06,11,2,14,0.01
2012-3-14,85,70,54,60,56,52,97,66,35,30.19,30.10,7,1,13,0.00
2012-3-15,82,68,51,60,54,49,95,64,40,30.24,30.12,8,1,13,0.00
2012-3-16,80,67,58,61,57,53,94,71,46,30.18,30.06,6,1,15,0.03
2012-3-17,78,68,56,64,60,56,98,79,53,30.23,30.12,4,0,9,0.01
2012-3-18,71,62,57,62,59,56,97,90,74,30.30,30.18,3,0,6,0.17
2012-3-19,77,63,53,65,59,52,98,88,62,30.25,30.09,4,0,7,0.49
2012-3-20,81,68,59,65,61,58,97,80,52,30.25,30.08,6,1,9,0.55
2012-3-21,78,67,60,64,61,59,97,83,57,30.28,30.16,6,1,10,0.16
2012-3-22,80,68,55,66,61,54,98,79,54,30.24,30.10,6,1,10,0.00
2012-3-23,84,72,61,67,63,60,98,75,48,30.12,29.92,10,1,12,0.02
2012-3-24,71,65,55,67,63,53,97,93,73,29.96,29.74,7,1,19,1.87
2012-3-25,66,59,55,59,56,54,98,91,78,29.78,29.68,6,1,14,0.03
2012-3-26,76,65,56,57,50,33,95,64,36,30.09,29.76,11,2,18,0.00
2012-3-27,60,49,41,36,27,20,66,44,30,30.34,30.10,7,1,11,0.00
2012-3-28,79,60,41,61,49,32,85,69,53,30.24,29.81,12,3,22,0.00
2012-3-29,83,70,54,58,48,39,84,52,22,29.89,29.78,10,2,19,0.00
2012-3-30,76,62,47,61,52,43,91,72,54,30.03,29.82,5,1,8,0.00
2012-3-31,76,65,61,66,62,58,97,89,55,29.83,29.66,7,1,11,0.19
2012-4-1,69,60,50,58,52,48,91,75,51,29.90,29.66,5,1,10,0.00
2012-4-2,73,64,49,61,50,41,78,61,33,29.92,29.59,11,2,14,0.00
2012-4-3,78,60,39,56,47,38,96,67,40,30.02,29.79,8,1,12,0.00
2012-4-4,85,68,58,65,61,56,94,78,48,29.79,29.59,4,1,15,0.10
2012-4-5,64,59,48,62,48,41,97,70,50,29.84,29.61,7,1,16,0.04
2012-4-6,62,50,40,44,40,32,93,72,35,30.07,29.82,7,1,15,0.03
2012-4-7,68,50,34,38,33,25,91,58,25,30.26,30.07,6,1,13,0.00
2012-4-8,76,56,35,45,38,32,91,57,26,30.13,29.87,7,1,15,0.00
2012-4-9,73,61,45,43,38,34,77,46,27,30.03,29.79,13,2,19,0.00
2012-4-10,74,61,47,41,38,33,67,44,29,29.92,29.71,13,2,27,0.00
2012-4-11,56,49,40,36,28,26,66,45,35,30.11,29.78,16,2,25,0.00
2012-4-12,62,45,30,38,31,26,88,61,32,30.20,30.11,7,1,12,0.00
2012-4-13,69,50,35,44,38,33,95,68,32,30.26,30.14,6,1,7,0.00
2012-4-14,76,60,39,54,44,37,95,61,33,30.32,30.14,12,2,19,0.00
2012-4-15,80,68,58,63,59,54,92,75,54,30.20,30.09,11,3,19,0.00
2012-4-16,84,73,60,63,60,57,87,67,46,30.16,30.03,15,3,21,0.00
2012-4-17,84,73,61,62,59,48,91,64,45,30.14,30.04,5,1,19,0.00
2012-4-18,69,61,54,55,51,44,94,71,44,30.15,30.02,5,1,10,0.15
2012-4-19,63,57,52,57,53,51,95,88,75,30.09,30.01,5,0,6,0.01
2012-4-20,72,62,52,60,56,51,97,83,65,30.01,29.83,4,0,9,0.00
2012-4-21,80,66,52,66,60,51,98,82,59,29.84,29.66,11,1,12,0.26
2012-4-22,61,54,48,60,53,47,97,95,94,29.71,29.44,8,2,14,0.68
2012-4-23,50,46,42,46,41,38,95,84,64,29.67,29.45,10,2,18,0.02
2012-4-24,64,50,36,39,34,27,89,58,29,29.77,29.65,17,2,26,0.00
2012-4-25,68,55,38,53,46,36,92,74,52,29.96,29.79,9,2,14,0.00
2012-4-26,77,64,55,65,59,52,97,85,60,29.88,29.71,16,2,22,0.45
2012-4-27,76,66,55,63,55,49,97,71,41,30.08,29.79,5,1,13,0.00
2012-4-28,58,55,51,51,48,46,92,77,65,30.20,30.06,5,1,11,0.00
2012-4-29,77,64,54,63,57,50,92,79,61,30.19,30.09,5,1,9,0.00
2012-4-30,61,60,59,60,58,57,96,94,90,30.22,30.16,3,0,6,0.00
2012-5-2,91,84,72,72,70,68,88,64,47,30.05,30.00,7,1,11,0.00
2012-5-3,92,79,66,72,68,64,94,72,49,30.09,29.99,4,1,10,0.00
2012-5-4,90,77,62,72,67,61,96,72,49,30.02,29.86,9,1,14,0.00
2012-5-5,83,72,65,71,67,61,98,84,66,29.87,29.76,4,0,10,2.02
2012-5-6,72,67,61,68,65,60,98,92,79,30.02,29.86,8,1,9,0.02
2012-5-7,77,67,58,64,61,56,97,81,63,30.06,29.94,6,1,9,0.00
2012-5-8,78,68,58,65,61,56,95,79,63,30.00,29.81,9,1,12,0.00
2012-5-9,75,66,58,69,62,57,96,89,72,29.85,29.64,5,1,20,0.33
2012-5-10,71,60,50,55,51,48,96,75,46,29.95,29.68,14,1,18,0.01
2012-5-11,72,59,44,51,46,42,94,66,36,30.21,29.95,5,1,9,0.00
2012-5-12,77,61,44,58,50,43,97,73,40,30.33,30.20,4,0,12,0.00
2012-5-13,74,65,55,63,60,53,97,84,64,30.24,30.12,6,1,12,0.11
2012-5-14,72,66,61,66,64,61,97,93,77,30.12,29.93,7,1,13,0.79
2012-5-15,82,70,63,72,67,62,98,88,63,29.97,29.88,11,1,18,0.23
2012-5-16,84,72,63,72,67,63,98,84,58,29.94,29.84,3,0,6,0.02
2012-5-17,80,69,61,69,65,60,98,86,63,30.02,29.88,7,1,13,0.03
2012-5-18,75,66,58,62,54,49,93,67,40,30.08,30.02,8,1,12,0.00
2012-5-19,76,64,51,59,52,48,93,68,42,30.12,30.04,7,1,11,0.00
2012-5-20,81,67,51,63,57,50,96,72,44,30.10,30.01,8,1,20,0.00
2012-5-21,83,71,65,68,65,63,97,82,59,30.01,29.83,3,0,7,0.51
2012-5-22,85,70,61,71,66,60,98,86,54,29.86,29.75,5,0,16,0.09
2012-5-23,80,68,62,70,65,61,98,91,70,29.94,29.79,3,0,12,2.13
2012-5-24,85,71,60,73,67,59,99,89,62,30.02,29.93,3,0,7,0.01
2012-5-25,87,73,61,73,68,60,98,84,57,30.11,30.02,2,0,8,0.00
2012-5-26,85,75,65,71,68,64,98,81,60,30.13,30.04,5,0,9,0.01
2012-5-27,85,73,64,74,65,-100,98,83,67,30.13,30.03,3,-13,8,0.00
2012-5-28,88,76,70,74,71,69,97,86,58,30.07,29.96,10,1,13,0.24
2012-5-29,87,77,71,73,71,69,97,83,60,29.99,29.80,8,1,16,0.01
2012-5-30,82,73,64,71,68,62,98,85,55,29.82,29.69,6,1,12,0.20
2012-5-31,90,76,62,68,65,61,97,71,44,29.89,29.76,7,0,14,0.04
2012-6-1,87,72,64,75,68,62,97,87,58,29.89,29.65,11,2,18,0.30
2012-6-2,75,65,55,63,56,52,97,77,49,29.88,29.76,9,1,13,0.01
2012-6-3,80,67,50,61,56,49,96,70,49,29.92,29.77,9,1,15,0.00
2012-6-4,83,72,60,66,60,57,93,68,44,29.79,29.62,8,1,16,0.00
2012-6-5,75,67,59,59,58,55,93,74,52,29.92,29.70,7,1,12,0.01
2012-6-6,72,62,56,61,57,54,96,83,58,29.99,29.88,4,0,9,0.10
2012-6-7,81,67,52,62,57,51,98,75,46,30.04,29.95,5,0,8,0.00
2012-6-8,84,70,55,63,58,54,97,70,38,30.03,29.94,5,0,8,0.00
2012-6-9,88,72,55,64,60,54,96,68,39,30.05,29.96,6,1,11,0.00
2012-6-10,87,76,64,67,63,60,90,66,44,30.13,30.03,5,1,10,0.00
2012-6-11,82,73,69,74,69,62,98,87,73,30.13,30.02,6,1,17,0.54
2012-6-12,83,74,70,74,72,68,98,90,74,30.02,29.82,5,1,10,0.00
2012-6-13,85,75,65,72,66,52,98,77,57,30.00,29.84,6,1,12,0.07
2012-6-14,78,67,54,67,61,52,92,81,69,30.15,30.00,6,1,10,0.00
2012-6-15,80,69,58,66,61,57,95,77,58,30.21,30.12,9,1,12,0.00
2012-6-16,80,68,53,61,57,51,95,70,45,30.25,30.12,8,1,11,0.00
2012-6-17,81,67,53,61,58,52,97,74,45,30.18,30.00,4,0,8,0.00
2012-6-18,85,72,61,70,64,58,94,79,59,30.08,30.01,7,1,11,0.00
2012-6-19,92,78,68,74,69,64,92,74,51,30.13,30.05,5,1,10,0.00
2012-6-20,94,80,68,76,72,66,97,78,49,30.12,30.01,4,0,8,0.00
2012-6-21,83,75,70,74,71,69,95,89,74,30.02,29.99,3,0,5,0.00
2012-6-23,89,74,72,74,58,-100,91,70,58,29.97,0.00,1,-80,3,0.00
2012-6-24,91,79,68,74,69,64,97,73,42,29.99,29.86,7,1,14,0.00
2012-6-25,93,81,71,75,71,68,95,72,44,29.89,29.64,8,1,11,0.00
2012-6-26,80,72,60,68,54,49,79,53,39,29.88,29.76,10,2,16,0.00
2012-6-27,87,71,53,58,55,52,95,62,34,29.95,29.85,7,1,11,0.00
2012-6-28,96,78,57,65,60,55,93,59,31,29.97,29.83,8,1,16,0.00
2012-6-29,104,86,72,77,69,64,77,58,40,29.83,29.72,9,2,13,0.00
2012-6-30,105,92,86,74,67,-100,68,47,33,29.85,29.76,4,-31,14,0.00
2012-7-1,101,85,73,79,70,61,80,62,39,29.92,29.80,8,1,30,0.01
2012-7-2,93,82,72,71,67,64,79,62,43,29.97,29.89,12,2,21,0.00
2012-7-3,99,85,70,74,70,67,92,65,38,29.97,29.84,3,1,9,0.00
2012-7-4,98,83,72,75,71,69,90,69,45,29.93,29.85,6,1,11,0.00
2012-7-5,100,84,72,77,72,67,94,70,42,29.89,29.80,9,1,13,0.00
2012-7-6,98,81,71,80,72,68,93,76,47,29.92,29.84,4,0,10,0.10
2012-7-7,102,86,71,77,73,70,97,68,41,29.95,29.85,9,1,11,0.01
2012-7-8,104,90,78,77,73,69,83,60,34,29.91,29.76,6,2,10,0.00
2012-7-9,95,80,72,77,72,-100,97,80,54,29.94,29.80,5,-10,13,0.24
2012-7-10,83,76,71,77,73,71,98,91,72,30.00,29.89,6,0,9,0.42
2012-7-11,80,72,66,75,70,65,98,94,80,30.10,29.99,5,0,12,1.15
2012-7-12,83,74,66,73,69,65,99,84,63,30.15,30.08,4,0,8,1.15
2012-7-13,87,77,70,76,72,69,97,87,66,30.18,30.09,5,1,10,0.09
2012-7-14,90,79,71,77,74,71,98,86,59,30.19,30.07,5,1,11,0.09
2012-7-15,93,82,73,77,74,72,98,79,55,30.17,30.02,8,1,11,0.09
2012-7-16,95,82,74,77,74,72,91,76,50,30.05,29.87,5,1,10,0.00
2012-7-17,96,84,72,78,74,71,96,75,49,29.93,29.83,3,0,7,0.00
2012-7-18,94,85,75,81,76,72,93,75,57,29.94,29.84,7,2,12,0.00
2012-7-19,95,82,74,76,74,71,96,77,53,29.97,29.87,7,2,13,0.11
2012-7-20,92,79,74,78,74,72,97,86,57,29.91,29.83,6,1,23,0.15
2012-7-21,90,78,72,79,74,71,98,88,67,30.07,29.91,9,1,19,0.19
2012-7-22,86,77,72,78,74,71,98,92,75,30.16,30.03,3,0,5,0.20
2012-7-23,95,81,72,79,74,71,98,82,52,30.13,29.97,7,1,17,0.16
2012-7-24,96,81,73,81,74,69,97,79,58,29.96,29.78,11,2,22,0.02
2012-7-25,89,80,71,73,70,67,87,73,55,29.93,29.83,7,1,7,0.02
2012-7-26,98,86,75,79,75,72,91,71,50,29.87,29.72,7,2,19,0.00
2012-7-27,99,84,74,78,75,71,98,76,47,29.90,29.77,9,1,17,0.85
2012-7-28,94,80,68,79,74,65,99,84,51,29.97,29.84,10,1,35,0.10
2012-7-29,92,78,67,74,70,67,98,79,47,29.97,29.89,6,0,8,0.03
2012-7-30,90,76,70,77,72,69,98,86,57,29.99,29.91,6,1,15,0.01
2012-7-31,88,77,70,75,71,69,98,84,57,29.97,29.85,4,0,7,0.01
2012-8-1,90,78,70,76,71,69,97,83,59,29.89,29.78,6,1,11,0.01
2012-8-2,92,78,70,75,71,68,98,79,50,29.93,29.83,7,1,14,0.01
2012-8-3,92,80,68,75,71,66,96,76,50,30.05,29.90,8,1,13,0.00
2012-8-4,91,82,73,76,73,71,96,75,54,30.16,30.04,8,2,13,0.00
2012-8-5,90,80,74,78,74,72,95,82,62,30.19,30.06,9,2,15,0.02
2012-8-6,92,80,73,77,74,72,96,81,53,30.10,29.96,8,1,12,0.02
2012-8-7,84,76,72,77,74,71,98,93,77,30.02,29.94,8,1,9,0.00
2012-8-8,88,76,68,77,73,67,98,90,68,29.97,29.89,6,1,14,0.00
2012-8-9,88,76,65,77,72,65,99,86,66,29.97,29.83,5,1,10,0.00
2012-8-10,82,76,70,77,72,70,97,91,78,29.84,29.78,13,2,17,0.01
2012-8-11,85,75,72,78,73,69,98,93,72,29.91,29.81,6,1,17,0.01
2012-8-12,87,77,70,71,70,68,98,82,55,29.98,29.90,5,0,7,0.00
2012-8-13,89,73,64,74,66,-100,98,82,51,30.02,29.91,5,-13,7,0.00
2012-8-14,91,80,65,72,69,64,98,71,48,29.92,29.81,12,1,13,0.00
2012-8-15,87,79,71,74,72,69,95,79,62,29.90,29.82,5,0,9,0.00
2012-8-16,88,76,67,70,67,64,95,75,48,30.00,29.90,4,0,9,0.00
2012-8-17,91,78,63,72,68,62,98,74,49,29.97,29.78,7,1,16,0.00
2012-8-18,86,76,67,71,68,66,96,79,58,29.88,29.80,7,1,8,0.00
2012-8-19,73,70,68,71,69,67,98,95,87,29.88,29.81,5,0,11,0.00
2012-8-20,80,71,66,71,68,66,98,90,66,29.94,29.82,3,0,5,0.00
2012-8-21,82,73,66,73,69,66,98,89,65,30.04,29.93,2,0,7,0.00
2012-8-22,78,72,67,73,70,66,98,94,83,30.10,30.02,2,0,8,0.01
2012-8-23,84,74,66,71,68,66,99,82,55,30.12,30.06,8,1,8,0.01
2012-8-24,77,71,65,70,67,64,97,87,73,30.13,30.07,4,0,7,0.00
2012-8-25,71,66,62,66,64,61,97,91,76,30.09,30.05,8,1,12,0.00
2012-8-26,82,72,64,73,68,63,98,87,66,30.17,30.07,4,0,8,0.00
2012-8-27,88,76,68,77,72,67,98,88,64,30.13,29.97,5,0,8,0.00
2012-8-28,88,79,73,78,74,72,98,87,70,30.00,29.86,8,1,11,0.01
2012-8-29,86,76,69,74,71,68,98,86,59,29.98,29.88,6,0,7,0.01
2012-8-30,88,78,66,75,70,65,98,80,57,30.12,29.97,8,1,11,0.01
2012-8-31,93,81,72,79,74,71,98,83,59,30.17,30.03,6,1,9,0.00
2012-9-1,91,82,73,79,75,71,98,81,57,30.09,30.00,5,1,11,0.00
2012-9-2,87,81,72,77,74,70,96,81,65,30.02,29.89,5,1,9,0.00
2012-9-3,86,75,71,79,73,70,98,94,78,30.02,29.92,4,1,19,0.03
2012-9-4,88,78,71,75,73,71,99,84,60,30.00,29.88,6,1,10,0.07
2012-9-5,86,78,73,76,73,71,96,84,69,29.91,29.81,13,1,14,0.13
2012-9-6,89,77,71,79,73,71,98,90,66,29.93,29.84,10,1,14,0.18
2012-9-7,86,75,70,76,72,69,98,88,67,29.96,29.83,4,0,7,0.28
2012-9-8,89,74,67,78,71,67,99,91,65,29.84,29.65,7,1,20,0.30
2012-9-9,78,68,59,69,62,58,98,82,52,29.95,29.79,6,1,11,0.40
2012-9-10,77,64,53,61,57,52,98,79,50,30.14,29.95,7,0,10,0.31
2012-9-11,78,64,51,62,56,51,98,79,49,30.29,30.14,3,0,8,0.09
2012-9-12,78,64,52,62,57,51,98,79,48,30.35,30.26,7,0,8,0.01
2012-9-13,79,65,52,66,58,51,98,81,46,30.34,30.22,3,0,10,0.01
2012-9-14,80,69,60,70,65,60,98,86,66,30.25,30.11,4,0,6,0.00
2012-9-15,80,68,59,68,63,58,98,84,64,30.16,30.08,7,1,10,0.00
2012-9-16,64,60,58,61,59,57,97,94,87,30.18,30.07,1,0,5,0.33
2012-9-17,78,68,60,72,66,59,98,92,79,30.10,29.92,3,0,5,0.12
2012-9-18,81,72,68,75,71,67,98,95,81,29.91,29.68,14,2,21,0.51
2012-9-19,71,65,56,68,60,54,99,86,63,30.12,29.80,4,1,10,0.48
2012-9-20,75,63,52,64,57,51,100,84,60,30.16,30.03,4,0,7,0.33
2012-9-21,81,66,53,67,61,53,98,84,58,30.08,29.96,6,0,9,0.26
2012-9-22,84,72,62,70,65,59,95,80,59,29.97,29.84,9,2,17,0.02
2012-9-23,74,65,52,67,54,47,96,71,42,30.11,29.93,5,0,11,0.01
2012-9-24,71,58,47,55,50,46,96,78,45,30.22,30.11,3,0,9,0.01
2012-9-25,75,60,44,62,53,43,98,80,53,30.23,30.11,5,0,10,0.00
2012-9-26,82,66,53,67,60,52,96,82,57,30.20,30.11,6,1,10,0.00
2012-9-27,85,69,56,66,61,55,98,80,45,30.17,30.05,4,0,8,0.00
2012-9-28,84,69,57,70,64,57,98,86,59,30.07,29.95,5,0,9,0.08
2012-9-29,66,62,58,66,62,58,98,97,97,29.97,29.87,2,0,6,0.34
2012-9-30,71,62,54,64,58,54,98,88,65,29.91,29.82,2,0,6,0.25
2012-10-1,63,61,58,62,60,58,98,96,92,29.92,29.85,3,0,9,0.11
2012-10-2,87,75,63,79,72,62,99,92,71,29.93,29.79,8,1,10,0.14
2012-10-3,84,77,72,75,73,70,98,89,66,30.12,29.93,9,1,11,0.01
2012-10-4,79,71,64,70,66,63,96,86,69,30.19,30.11,6,0,9,0.01
2012-10-5,81,67,56,65,60,55,98,82,50,30.15,29.99,5,0,6,0.00
2012-10-6,82,69,58,69,62,56,97,80,56,29.99,29.84,7,1,11,0.00
2012-10-7,64,52,49,58,51,48,96,94,80,30.13,29.94,3,0,13,0.11
2012-10-8,51,48,46,50,47,44,97,93,82,30.22,30.12,9,1,13,0.05
2012-10-9,57,51,46,54,50,45,97,95,87,30.15,30.05,5,1,10,0.03
2012-10-10,71,60,53,58,54,51,96,82,58,30.08,29.95,9,1,13,0.04
2012-10-11,62,52,44,51,45,41,94,79,52,30.29,30.08,3,0,9,0.02
2012-10-12,72,58,51,54,50,48,94,77,44,30.34,30.16,5,0,10,0.05
2012-10-13,65,52,42,52,44,39,94,76,55,30.46,30.32,4,0,9,0.02
2012-10-14,74,57,40,63,53,40,97,86,62,30.32,29.99,6,1,12,0.02
2012-10-15,70,64,56,68,62,49,97,92,77,29.99,29.68,5,0,8,0.01
2012-10-16,68,55,43,53,47,42,95,77,45,29.94,29.82,3,0,8,0.01
2012-10-17,71,54,44,53,46,-100,98,81,49,29.99,29.89,6,-11,9,0.01
2012-10-18,76,59,43,68,56,42,98,89,70,29.92,29.75,4,0,11,0.01
2012-10-19,76,65,51,66,57,45,98,79,40,29.75,29.64,12,2,17,0.01
2012-10-20,70,56,43,52,47,41,96,74,47,29.93,29.72,7,0,11,0.01
2012-10-21,66,52,41,49,44,39,95,76,47,30.13,29.94,4,0,9,0.01
2012-10-22,74,54,38,54,46,37,97,79,44,30.22,30.11,4,0,6,0.01
2012-10-23,78,59,43,59,52,42,98,79,50,30.17,30.07,4,0,9,0.00
2012-10-24,82,63,48,61,55,47,97,78,46,30.17,30.05,5,0,8,0.00
2012-10-25,79,62,48,64,57,47,98,84,57,30.15,30.07,4,0,8,0.00
2012-10-26,71,62,53,65,60,52,98,92,80,30.11,29.92,6,1,10,0.00
2012-10-27,65,63,61,62,59,56,96,87,78,29.91,29.68,11,2,16,0.00
2012-10-28,63,59,52,56,52,49,92,77,64,29.68,29.54,11,3,19,0.00
2012-10-29,52,45,40,50,42,38,95,88,70,29.56,29.26,14,4,23,0.00
2012-10-30,50,45,40,38,35,33,90,68,54,29.57,29.24,21,4,28,0.00
2012-10-31,54,46,38,39,36,34,85,69,56,29.75,29.57,10,2,17,0.00
2012-11-1,57,48,37,39,37,35,91,68,50,29.83,29.71,10,1,17,0.00
2012-11-2,60,45,33,43,36,31,94,73,47,29.95,29.80,8,1,16,0.00
2012-11-3,59,44,31,38,34,29,94,72,40,30.08,29.95,10,1,14,0.12
2012-11-4,53,46,40,43,40,37,91,82,64,30.08,29.96,7,0,9,0.01
2012-11-5,54,44,33,43,36,31,93,76,49,30.10,29.99,4,0,9,0.01
2012-11-6,45,38,31,35,32,30,95,80,62,30.13,29.92,7,0,11,0.00
2012-11-7,53,42,34,37,34,31,92,73,52,29.93,29.81,6,0,10,0.00
2012-11-8,61,46,32,36,29,24,95,58,25,30.09,29.93,7,1,11,0.00
2012-11-9,64,47,31,39,32,24,90,61,36,30.24,30.09,4,0,8,0.00
2012-11-10,72,50,31,44,37,30,96,68,32,30.37,30.23,9,1,10,0.00
2012-11-11,73,55,34,55,46,33,96,74,43,30.46,30.36,6,0,12,0.00
2012-11-12,73,60,44,63,55,42,97,86,65,30.40,30.15,10,1,12,0.06
2012-11-13,64,49,37,61,47,36,96,93,84,30.40,30.12,7,1,18,0.05
2012-11-14,50,40,31,36,33,29,96,79,56,30.48,30.37,7,1,11,0.08
2012-11-15,46,41,35,42,37,30,96,86,71,30.38,30.23,4,0,7,0.06
2012-11-16,55,44,35,42,39,33,95,82,56,30.38,30.25,7,1,10,0.02
2012-11-17,56,43,32,37,33,30,95,69,38,30.48,30.38,7,1,13,0.03
2012-11-18,55,50,44,46,43,37,88,79,72,30.46,30.34,12,3,14,0.03
2012-11-19,58,51,44,49,44,41,90,78,70,30.33,30.16,11,2,14,0.00
2012-11-20,59,48,40,48,44,38,93,83,65,30.16,30.03,5,0,7,0.00
2012-11-21,59,45,36,44,38,33,96,79,48,30.17,30.08,5,1,13,0.00
2012-11-22,60,44,32,36,31,27,86,64,33,30.24,30.14,6,1,11,0.00
2012-11-23,65,47,26,42,35,25,94,66,41,30.14,29.86,7,1,14,0.00
2012-11-24,53,43,29,36,25,18,64,51,38,30.11,29.87,11,2,17,0.00
2012-11-25,51,37,22,26,22,18,83,58,36,30.17,30.01,9,1,13,0.00
2012-11-26,66,47,27,33,29,24,89,54,28,30.18,30.07,5,0,9,0.00
2012-11-27,55,44,35,45,37,29,94,78,50,30.24,30.09,3,0,9,0.08
2012-11-28,52,39,28,36,32,26,95,79,49,30.39,30.23,10,0,10,0.09
2012-11-29,54,37,23,32,27,21,94,72,41,30.47,30.36,5,0,9,0.00
2012-11-30,61,43,27,39,32,25,95,71,43,30.39,30.27,5,0,10,0.00
2012-12-1,64,44,30,46,37,28,94,78,52,30.39,30.30,4,0,6,0.00
2012-12-2,67,50,34,53,45,32,96,82,60,30.38,30.22,6,1,16,0.00
2012-12-3,75,63,55,58,55,53,94,77,55,30.27,30.18,5,1,7,0.00
2012-12-4,70,58,44,58,52,43,96,81,65,30.28,30.14,8,1,13,0.00
2012-12-5,62,57,43,58,54,42,95,89,82,30.19,30.08,7,1,13,0.04
2012-12-6,49,43,36,41,36,32,96,76,56,30.33,30.18,5,1,10,0.04
2012-12-7,51,47,44,48,43,36,96,87,75,30.21,29.99,3,0,4,0.13
2012-12-8,64,54,49,56,51,48,97,90,76,30.03,29.93,5,1,9,0.14
2012-12-9,70,61,51,63,57,50,96,87,69,30.10,29.95,6,1,9,0.01
2012-12-10,70,65,62,63,61,59,98,86,72,29.95,29.65,12,3,19,0.01
2012-12-11,64,56,46,60,45,36,89,68,52,30.13,29.68,8,2,15,0.00
2012-12-12,47,44,38,39,35,32,93,73,61,30.33,30.13,9,1,12,0.09
2012-12-13,51,40,30,39,34,28,93,80,61,30.39,30.27,7,1,11,0.14
2012-12-14,57,37,24,36,30,23,95,78,42,30.36,30.22,3,0,6,0.14
2012-12-15,56,42,29,41,35,27,95,78,45,30.26,30.09,3,0,6,0.00
2012-12-16,58,51,45,55,49,41,97,92,78,30.07,29.88,7,1,11,0.04
2012-12-17,60,57,54,57,55,53,100,93,86,29.87,29.61,7,2,19,0.13
2012-12-18,61,53,38,56,46,33,96,77,48,29.88,29.61,9,2,16,0.05
2012-12-19,65,46,31,40,36,29,94,69,40,30.11,29.86,7,1,13,0.02
2012-12-20,62,48,34,60,43,32,95,86,67,30.15,29.43,14,2,31,0.35
2012-12-21,56,43,37,51,29,22,83,59,47,29.78,29.45,13,5,26,0.37
2012-12-22,50,40,33,26,23,19,61,50,34,30.09,29.78,20,3,22,0.00
2012-12-23,55,41,24,29,24,20,86,55,33,30.13,30.00,7,1,15,0.00
2012-12-24,51,47,42,47,38,30,90,72,54,30.01,29.87,7,1,12,0.00
2012-12-25,59,50,44,47,44,42,93,80,58,30.09,29.90,4,1,11,0.02
2012-12-26,46,42,37,46,40,35,97,94,85,30.05,29.43,12,2,18,1.57
2012-12-27,48,40,33,35,31,26,93,71,55,30.07,29.60,13,2,16,1.57
2012-12-28,44,35,26,32,28,23,91,76,57,30.18,30.01,2,0,7,0.00
2012-12-29,51,41,36,43,35,27,96,81,58,29.99,29.63,13,2,19,0.10
2012-12-30,45,38,28,27,23,21,78,57,41,30.38,29.94,10,2,20,0.10
2012-12-31,53,39,24,31,26,19,87,62,38,30.36,30.09,8,1,16,0.00
2013-1-1,47,46,42,46,39,30,97,80,52,30.08,29.90,6,1,15,0.24